Погода в Зиадине

Узбекистан     40°01′48″N   65°39′34″E
темп.,
°C
ветер,
м/с
пор.,
м/с
влажн.,
%
обл.,
%
осадки,
мм/ч
давл.,
гПа
погр.,
м
9 мая, вс
вс923:00+26сз453699 0.0 1012152
02:00+22ссз3441100 0.1 1012138
05:00+21ссв2335100 0.1 1012186
08:00+22всв3337100 0.0 1014427
11:00+25ююз0137100 0.1 10141102
14:00+28зюз113044 0.0 10121960
17:00+28ссз4329100 0.0 10101694
20:00+25всв7114099 0.0 1011422
10 мая, пн
пн1023:00+22в6105099 0.0 1010468
02:00+20вюв485299 0.0 1008194
05:00+19вюв585697 0.0 1009173
08:00+22в5749100 0.0 1009526
11:00+24в8945100 0.3 10091176
14:00+26в87380 0.1 10091452
17:00+26в89401 0.3 10081035
20:00+22в7114210 0.0 1010424
11 мая, вт
вт1123:00+20св5933100 0.3 1011355
02:00+19всв483786 0.0 1012209
05:00+17в36435 0.0 1013117
08:00+21св362929 0.0 1015442
11:00+27св67155 0.0 10141798
14:00+29ссв77130 0.0 10132241
17:00+29ссв88140 0.0 10132412
20:00+23ссв59220 0.0 1014183
12 мая, ср
ср1223:00+21с48290 0.0 1014150
02:00+18в11370 0.0 101412
05:00+17в23410 0.0 101431
08:00+21всв46360 0.0 1015568
11:00+26св55260 0.0 10141803
14:00+28ссв872327 0.0 10142139
17:00+27ссв1010190 0.0 10131697
20:00+21св7121841 0.0 1015517
13 мая, чт
чт1323:00+19св712310 0.0 1015365
02:00+16всв611420 0.0 1014351
05:00+14в58584 0.0 1014202
08:00+17всв68502 0.0 1014667
11:00+23всв79290 0.0 10131436
14:00+26ссв109230 0.0 10121899
17:00+26св1110250 0.0 10121965
20:00+22св813250 0.0 1013507